| time (UTC) | temp C | wind direction | speed KPH | gust KPH | rain 1hr cm | rain 24hr cm | rain mn cm | humidity % | barometer mb |
| 20260510140512 | 25 | 212 | 1.6 | 4.8 | 0.00 | 0.00 | 0.00 | 83 | 1016.7 |
| 20260510140012 | 25 | 184 | 3.2 | 3.2 | 0.00 | 0.00 | 0.00 | 83 | 1016.6 |
| 20260510135507 | 24 | 183 | 4.8 | 8.0 | 0.00 | 0.00 | 0.00 | 84 | 1016.6 |
| 20260510135004 | 24 | 187 | 4.8 | 4.8 | 0.00 | 0.00 | 0.00 | 84 | 1016.6 |
| 20260510134501 | 23 | 146 | 3.2 | 4.8 | 0.00 | 0.00 | 0.00 | 84 | 1016.3 |
| 20260510133958 | 24 | 184 | 1.6 | 3.2 | 0.00 | 0.00 | 0.00 | 85 | 1016.3 |
| 20260510133454 | 23 | 184 | 3.2 | 3.2 | 0.00 | 0.00 | 0.00 | 86 | 1016.2 |
| 20260510132949 | 23 | 222 | 1.6 | 1.6 | 0.00 | 0.00 | 0.00 | 86 | 1016.1 |
| 20260510132447 | 22 | 314 | 3.2 | 4.8 | 0.00 | 0.00 | 0.00 | 87 | 1016.0 |
| 20260510131944 | 22 | 182 | 3.2 | 3.2 | 0.00 | 0.00 | 0.00 | 90 | 1016.1 |
| 20260510131442 | 22 | 187 | 0.0 | 0.0 | 0.00 | 0.00 | 0.00 | 92 | 1015.9 |
| 20260510130938 | 21 | 244 | 1.6 | 1.6 | 0.00 | 0.00 | 0.00 | 94 | 1015.8 |
| 20260510130435 | 21 | 245 | 1.6 | 1.6 | 0.00 | 0.00 | 0.00 | 94 | 1015.7 |
| 20260510125932 | 21 | 203 | 3.2 | 3.2 | 0.00 | 0.00 | 0.00 | 95 | 1015.6 |
| 20260510125428 | 21 | 186 | 0.0 | 0.0 | 0.00 | 0.00 | 0.00 | 96 | 1015.4 |
| 20260510124925 | 20 | 216 | 0.0 | 0.0 | 0.00 | 0.00 | 0.00 | 97 | 1015.5 |
| 20260510124421 | 20 | 222 | 1.6 | 1.6 | 0.00 | 0.00 | 0.00 | 98 | 1015.0 |
| 20260510123918 | 20 | 223 | 0.0 | 0.0 | 0.00 | 0.00 | 0.00 | 98 | 1015.2 |
| 20260510123414 | 20 | 223 | 0.0 | 0.0 | 0.00 | 0.00 | 0.00 | 99 | 1015.2 |
| 20260510122910 | 20 | 223 | 1.6 | 1.6 | 0.00 | 0.00 | 0.00 | 99 | 1015.2 |
| 20260510122405 | 20 | 223 | 0.0 | 0.0 | 0.00 | 0.00 | 0.00 | 99 | 1015.1 |
| 20260510121901 | 20 | 223 | 0.0 | 0.0 | 0.00 | 0.00 | 0.00 | 99 | 1014.9 |
| 20260510121359 | 20 | 223 | 0.0 | 0.0 | 0.00 | 0.00 | 0.00 | 99 | 1015.1 |
| 20260510120856 | 20 | 223 | 0.0 | 0.0 | 0.00 | 0.00 | 0.00 | 99 | 1014.9 |
| 20260510120354 | 20 | 224 | 0.0 | 0.0 | 0.00 | 0.00 | 0.00 | 99 | 1014.8 |
| 20260510115849 | 20 | 224 | 0.0 | 0.0 | 0.00 | 0.00 | 0.00 | 99 | 1014.8 |
| 20260510115346 | 20 | 224 | 0.0 | 0.0 | 0.00 | 0.00 | 0.00 | 99 | 1014.6 |
| 20260510114842 | 20 | 222 | 0.0 | 0.0 | 0.00 | 0.00 | 0.00 | 98 | 1014.7 |
| 20260510114339 | 20 | 222 | 0.0 | 0.0 | 0.00 | 0.00 | 0.00 | 98 | 1014.7 |
| 20260510113839 | 20 | 222 | 0.0 | 1.6 | 0.00 | 0.00 | 0.00 | 98 | 1014.6 |
| 20260510113336 | 20 | 224 | 0.0 | 0.0 | 0.00 | 0.00 | 0.00 | 98 | 1014.7 |
| 20260510112833 | 20 | 224 | 0.0 | 0.0 | 0.00 | 0.00 | 0.00 | 98 | 1014.7 |
| 20260510112330 | 20 | 224 | 0.0 | 0.0 | 0.00 | 0.00 | 0.00 | 97 | 1014.7 |
| 20260510111826 | 20 | 224 | 0.0 | 0.0 | 0.00 | 0.00 | 0.00 | 97 | 1014.6 |
| 20260510111323 | 20 | 223 | 0.0 | 0.0 | 0.00 | 0.00 | 0.00 | 97 | 1014.6 |
| 20260510110822 | 20 | 223 | 0.0 | 0.0 | 0.00 | 0.00 | 0.00 | 97 | 1014.6 |
| 20260510110320 | 20 | 223 | 0.0 | 0.0 | 0.00 | 0.00 | 0.00 | 97 | 1014.5 |
| 20260510105815 | 20 | 224 | 0.0 | 0.0 | 0.00 | 0.00 | 0.00 | 96 | 1014.4 |
| 20260510105310 | 20 | 223 | 0.0 | 0.0 | 0.00 | 0.00 | 0.00 | 96 | 1014.4 |
| 20260510104807 | 20 | 223 | 0.0 | 0.0 | 0.00 | 0.00 | 0.00 | 96 | 1014.3 |
| 20260510104305 | 21 | 223 | 0.0 | 0.0 | 0.00 | 0.00 | 0.00 | 96 | 1014.4 |
| 20260510103800 | 21 | 223 | 0.0 | 0.0 | 0.00 | 0.00 | 0.00 | 96 | 1014.2 |
| 20260510103257 | 21 | 221 | 0.0 | 1.6 | 0.00 | 0.00 | 0.00 | 96 | 1013.9 |
| 20260510102752 | 21 | 218 | 0.0 | 0.0 | 0.00 | 0.00 | 0.00 | 96 | 1014.1 |
| 20260510102248 | 20 | 201 | 1.6 | 1.6 | 0.00 | 0.00 | 0.00 | 97 | 1013.9 |
| 20260510101745 | 20 | 236 | 0.0 | 1.6 | 0.00 | 0.00 | 0.00 | 96 | 1014.2 |
| 20260510101244 | 20 | 216 | 0.0 | 0.0 | 0.00 | 0.00 | 0.00 | 96 | 1014.0 |
| 20260510100739 | 20 | 217 | 0.0 | 1.6 | 0.00 | 0.00 | 0.00 | 95 | 1014.1 |
| 20260510100238 | 20 | 216 | 0.0 | 0.0 | 0.00 | 0.00 | 0.00 | 95 | 1014.0 |
| 20260510095733 | 20 | 216 | 0.0 | 0.0 | 0.00 | 0.00 | 0.00 | 95 | 1014.0 |
| 20260510095228 | 21 | 216 | 0.0 | 1.6 | 0.00 | 0.00 | 0.00 | 94 | 1013.9 |
| 20260510094727 | 21 | 216 | 0.0 | 0.0 | 0.00 | 0.00 | 0.00 | 94 | 1013.9 |
| 20260510094223 | 21 | 212 | 0.0 | 0.0 | 0.00 | 0.00 | 0.00 | 94 | 1013.8 |
| 20260510093719 | 21 | 184 | 3.2 | 3.2 | 0.00 | 0.00 | 0.00 | 94 | 1013.7 |
| 20260510093216 | 21 | 201 | 3.2 | 3.2 | 0.00 | 0.00 | 0.00 | 94 | 1013.9 |
| 20260510092712 | 21 | 221 | 1.6 | 1.6 | 0.00 | 0.00 | 0.00 | 93 | 1014.1 |
| 20260510092208 | 21 | 222 | 0.0 | 0.0 | 0.00 | 0.00 | 0.00 | 93 | 1013.8 |
| 20260510091704 | 21 | 222 | 0.0 | 0.0 | 0.00 | 0.00 | 0.00 | 93 | 1013.7 |
| 20260510091201 | 21 | 223 | 0.0 | 0.0 | 0.00 | 0.00 | 0.00 | 93 | 1013.7 |
| 20260510090657 | 21 | 185 | 1.6 | 1.6 | 0.00 | 0.00 | 0.00 | 93 | 1013.6 |
| 20260510090154 | 21 | 214 | 1.6 | 1.6 | 0.00 | 0.00 | 0.00 | 93 | 1013.8 |
| 20260510085649 | 21 | 213 | 0.0 | 0.0 | 0.00 | 0.00 | 0.00 | 93 | 1013.8 |
| 20260510085144 | 21 | 212 | 1.6 | 3.2 | 0.00 | 0.00 | 0.00 | 94 | 1014.0 |
| 20260510084641 | 21 | 213 | 0.0 | 1.6 | 0.00 | 0.00 | 0.00 | 93 | 1013.9 |
| 20260510084138 | 21 | 214 | 0.0 | 0.0 | 0.00 | 0.00 | 0.00 | 93 | 1014.0 |
| 20260510083634 | 21 | 214 | 0.0 | 0.0 | 0.00 | 0.00 | 0.00 | 92 | 1014.0 |
| 20260510083131 | 21 | 213 | 0.0 | 0.0 | 0.00 | 0.00 | 0.00 | 92 | 1013.9 |
| 20260510082627 | 21 | 213 | 0.0 | 0.0 | 0.00 | 0.00 | 0.00 | 92 | 1014.0 |
| 20260510082123 | 21 | 214 | 0.0 | 0.0 | 0.00 | 0.00 | 0.00 | 91 | 1014.1 |
| 20260510081617 | 21 | 213 | 1.6 | 1.6 | 0.00 | 0.00 | 0.00 | 91 | 1014.3 |
| 20260510081114 | 21 | 214 | 0.0 | 0.0 | 0.00 | 0.00 | 0.00 | 90 | 1014.1 |
| 20260510080613 | 21 | 213 | 0.0 | 1.6 | 0.00 | 0.00 | 0.00 | 90 | 1014.3 |
| 20260510080110 | 22 | 213 | 0.0 | 0.0 | 0.00 | 0.00 | 0.00 | 89 | 1014.5 |
| 20260510075608 | 22 | 213 | 0.0 | 0.0 | 0.00 | 0.00 | 0.00 | 89 | 1014.2 |
| 20260510075104 | 22 | 213 | 0.0 | 0.0 | 0.00 | 0.00 | 0.00 | 88 | 1014.3 |
| 20260510074602 | 22 | 212 | 1.6 | 3.2 | 0.00 | 0.00 | 0.00 | 88 | 1014.3 |
| 20260510074057 | 22 | 187 | 1.6 | 1.6 | 0.00 | 0.00 | 0.00 | 88 | 1014.1 |
| 20260510073553 | 22 | 189 | 1.6 | 1.6 | 0.00 | 0.00 | 0.00 | 88 | 1014.4 |
| 20260510073051 | 22 | 217 | 1.6 | 3.2 | 0.00 | 0.00 | 0.00 | 88 | 1014.2 |
| 20260510072547 | 22 | 214 | 0.0 | 1.6 | 0.00 | 0.00 | 0.00 | 88 | 1014.4 |
| 20260510072043 | 22 | 203 | 3.2 | 3.2 | 0.00 | 0.00 | 0.00 | 87 | 1014.1 |
| 20260510071539 | 22 | 185 | 1.6 | 1.6 | 0.00 | 0.00 | 0.00 | 87 | 1013.9 |
| 20260510071037 | 22 | 159 | 4.8 | 4.8 | 0.00 | 0.00 | 0.00 | 87 | 1014.3 |
| 20260510070534 | 22 | 135 | 3.2 | 4.8 | 0.00 | 0.00 | 0.00 | 87 | 1014.3 |
| 20260510070031 | 22 | 204 | 1.6 | 1.6 | 0.00 | 0.00 | 0.00 | 87 | 1014.2 |
| 20260510065527 | 22 | 198 | 1.6 | 1.6 | 0.00 | 0.00 | 0.00 | 86 | 1014.0 |
| 20260510065023 | 22 | 196 | 1.6 | 1.6 | 0.00 | 0.00 | 0.00 | 86 | 1014.1 |
| 20260510064520 | 22 | 185 | 4.8 | 4.8 | 0.00 | 0.00 | 0.00 | 86 | 1014.1 |
| 20260510064017 | 23 | 213 | 1.6 | 1.6 | 0.00 | 0.00 | 0.00 | 86 | 1013.9 |
| 20260510063513 | 23 | 157 | 4.8 | 4.8 | 0.00 | 0.00 | 0.00 | 85 | 1014.1 |
| 20260510063011 | 23 | 152 | 4.8 | 4.8 | 0.00 | 0.00 | 0.00 | 85 | 1014.0 |
| 20260510062506 | 23 | 166 | 3.2 | 4.8 | 0.00 | 0.00 | 0.00 | 86 | 1014.0 |
| 20260510062001 | 23 | 201 | 1.6 | 1.6 | 0.00 | 0.00 | 0.00 | 86 | 1014.2 |
| 20260510061458 | 23 | 204 | 0.0 | 1.6 | 0.00 | 0.00 | 0.00 | 85 | 1014.0 |
| 20260510060955 | 23 | 169 | 3.2 | 3.2 | 0.00 | 0.00 | 0.00 | 86 | 1014.0 |
| 20260510060452 | 23 | 203 | 1.6 | 1.6 | 0.00 | 0.00 | 0.00 | 86 | 1013.9 |
| 20260510055948 | 23 | 199 | 1.6 | 1.6 | 0.00 | 0.13 | 0.13 | 86 | 1013.9 |
| 20260510055444 | 23 | 203 | 1.6 | 1.6 | 0.00 | 0.13 | 0.13 | 86 | 1013.8 |
| 20260510054943 | 23 | 219 | 0.0 | 1.6 | 0.00 | 0.13 | 0.13 | 86 | 1013.9 |
| 20260510054437 | 23 | 217 | 0.0 | 0.0 | 0.00 | 0.13 | 0.13 | 86 | 1014.0 |
| 20260510053932 | 23 | 189 | 0.0 | 0.0 | 0.00 | 0.13 | 0.13 | 86 | 1014.0 |
| 20260510053428 | 23 | 188 | 1.6 | 3.2 | 0.00 | 0.13 | 0.13 | 86 | 1014.1 |
| 20260510052924 | 23 | 147 | 4.8 | 8.0 | 0.00 | 0.13 | 0.13 | 86 | 1014.0 |
| 20260510052420 | 23 | 214 | 1.6 | 1.6 | 0.00 | 0.13 | 0.13 | 87 | 1013.9 |
| 20260510051917 | 23 | 199 | 3.2 | 3.2 | 0.00 | 0.13 | 0.13 | 88 | 1014.0 |
| 20260510051414 | 23 | 176 | 0.0 | 1.6 | 0.00 | 0.13 | 0.13 | 89 | 1014.0 |
| 20260510050910 | 23 | 175 | 1.6 | 1.6 | 0.00 | 0.13 | 0.13 | 89 | 1014.1 |
| 20260510050407 | 23 | 214 | 0.0 | 0.0 | 0.00 | 0.13 | 0.13 | 90 | 1014.1 |
| 20260510045904 | 23 | 214 | 0.0 | 0.0 | 0.00 | 0.13 | 0.13 | 90 | 1014.0 |
| 20260510045401 | 23 | 214 | 0.0 | 0.0 | 0.00 | 0.13 | 0.13 | 89 | 1014.0 |
| 20260510044858 | 23 | 214 | 0.0 | 0.0 | 0.00 | 0.13 | 0.13 | 89 | 1014.0 |
| 20260510044354 | 23 | 214 | 0.0 | 0.0 | 0.00 | 0.13 | 0.13 | 89 | 1013.8 |
| 20260510043851 | 23 | 214 | 0.0 | 0.0 | 0.00 | 0.13 | 0.13 | 88 | 1013.8 |
| 20260510043347 | 23 | 214 | 0.0 | 0.0 | 0.00 | 0.13 | 0.13 | 88 | 1014.0 |
| 20260510042845 | 23 | 214 | 0.0 | 0.0 | 0.00 | 0.13 | 0.13 | 88 | 1013.9 |
| 20260510042341 | 24 | 214 | 0.0 | 0.0 | 0.00 | 0.13 | 0.13 | 87 | 1013.9 |
| 20260510041837 | 24 | 214 | 0.0 | 0.0 | 0.00 | 0.13 | 0.13 | 87 | 1014.0 |
| 20260510041334 | 24 | 214 | 0.0 | 0.0 | 0.00 | 0.13 | 0.13 | 86 | 1013.7 |
| 20260510040832 | 24 | 214 | 0.0 | 0.0 | 0.00 | 0.13 | 0.13 | 86 | 1014.0 |
| 20260510040328 | 25 | 214 | 0.0 | 0.0 | 0.00 | 0.13 | 0.13 | 86 | 1013.7 |
| 20260510035824 | 25 | 214 | 0.0 | 0.0 | 0.00 | 0.13 | 0.13 | 85 | 1013.8 |
| 20260510035320 | 25 | 214 | 0.0 | 0.0 | 0.00 | 0.13 | 0.13 | 84 | 1013.7 |
| 20260510034816 | 25 | 214 | 0.0 | 0.0 | 0.00 | 0.13 | 0.13 | 84 | 1013.9 |
| 20260510034314 | 25 | 213 | 0.0 | 0.0 | 0.00 | 0.13 | 0.13 | 83 | 1013.6 |
| 20260510033810 | 25 | 211 | 3.2 | 4.8 | 0.00 | 0.13 | 0.13 | 83 | 1013.7 |
| 20260510033307 | 25 | 213 | 1.6 | 1.6 | 0.00 | 0.13 | 0.13 | 83 | 1013.6 |
| 20260510032803 | 25 | 212 | 3.2 | 4.8 | 0.00 | 0.13 | 0.13 | 83 | 1013.6 |
| 20260510032300 | 26 | 213 | 1.6 | 1.6 | 0.00 | 0.13 | 0.13 | 83 | 1013.5 |
| 20260510031755 | 26 | 213 | 3.2 | 3.2 | 0.00 | 0.13 | 0.13 | 82 | 1013.4 |
| 20260510031251 | 26 | 215 | 1.6 | 1.6 | 0.00 | 0.13 | 0.13 | 82 | 1013.4 |
| 20260510030745 | 26 | 208 | 3.2 | 3.2 | 0.00 | 0.13 | 0.13 | 82 | 1013.4 |
| 20260510030242 | 26 | 221 | 3.2 | 3.2 | 0.00 | 0.13 | 0.13 | 81 | 1013.1 |
| 20260510025739 | 26 | 186 | 3.2 | 3.2 | 0.00 | 0.13 | 0.13 | 81 | 1013.1 |
| 20260510025238 | 26 | 188 | 3.2 | 3.2 | 0.00 | 0.13 | 0.13 | 80 | 1013.1 |
| 20260510024734 | 26 | 190 | 4.8 | 8.0 | 0.00 | 0.13 | 0.13 | 80 | 1013.2 |
| 20260510024230 | 26 | 139 | 4.8 | 4.8 | 0.00 | 0.13 | 0.13 | 79 | 1013.1 |
| 20260510023725 | 26 | 187 | 1.6 | 1.6 | 0.00 | 0.13 | 0.13 | 79 | 1013.0 |
| 20260510023224 | 26 | 212 | 3.2 | 3.2 | 0.00 | 0.13 | 0.13 | 78 | 1012.7 |
| 20260510022720 | 26 | 197 | 4.8 | 8.0 | 0.00 | 0.13 | 0.13 | 77 | 1012.9 |
| 20260510022219 | 26 | 214 | 4.8 | 4.8 | 0.00 | 0.13 | 0.13 | 77 | 1012.7 |
| 20260510021715 | 26 | 184 | 1.6 | 3.2 | 0.00 | 0.13 | 0.13 | 77 | 1012.6 |
| 20260510021213 | 27 | 214 | 1.6 | 1.6 | 0.00 | 0.13 | 0.13 | 77 | 1012.3 |
| 20260510020707 | 27 | 215 | 3.2 | 3.2 | 0.00 | 0.13 | 0.13 | 76 | 1012.4 |
| 20260510020202 | 27 | 180 | 1.6 | 3.2 | 0.00 | 0.13 | 0.13 | 76 | 1012.3 |
| 20260510015658 | 27 | 211 | 3.2 | 3.2 | 0.00 | 0.13 | 0.13 | 75 | 1012.1 |
| 20260510015155 | 27 | 195 | 3.2 | 3.2 | 0.00 | 0.13 | 0.13 | 75 | 1012.1 |
| 20260510014650 | 27 | 194 | 1.6 | 1.6 | 0.00 | 0.13 | 0.13 | 74 | 1012.2 |
| 20260510014148 | 27 | 179 | 1.6 | 1.6 | 0.00 | 0.13 | 0.13 | 73 | 1012.2 |
| 20260510013643 | 27 | 193 | 4.8 | 8.0 | 0.00 | 0.13 | 0.13 | 73 | 1012.2 |
| 20260510013139 | 27 | 191 | 3.2 | 4.8 | 0.00 | 0.13 | 0.13 | 71 | 1012.1 |
| 20260510012638 | 27 | 214 | 3.2 | 3.2 | 0.00 | 0.13 | 0.13 | 71 | 1012.0 |
| 20260510012135 | 27 | 214 | 3.2 | 4.8 | 0.00 | 0.13 | 0.13 | 71 | 1011.9 |
| 20260510011635 | 28 | 207 | 4.8 | 4.8 | 0.00 | 0.13 | 0.13 | 70 | 1012.1 |
| 20260510011130 | 28 | 183 | 0.0 | 1.6 | 0.00 | 0.13 | 0.13 | 69 | 1012.0 |
| 20260510010627 | 28 | 193 | 4.8 | 8.0 | 0.00 | 0.13 | 0.13 | 68 | 1011.9 |
| 20260510010124 | 28 | 193 | 1.6 | 1.6 | 0.00 | 0.13 | 0.13 | 67 | 1011.5 |
| 20260510005619 | 28 | 193 | 3.2 | 4.8 | 0.00 | 0.13 | 0.13 | 67 | 1011.8 |
| 20260510005117 | 28 | 188 | 1.6 | 1.6 | 0.00 | 0.13 | 0.13 | 66 | 1011.9 |
| 20260510004615 | 28 | 198 | 1.6 | 3.2 | 0.00 | 0.13 | 0.13 | 64 | 1011.6 |
| 20260510004113 | 29 | 196 | 4.8 | 8.0 | 0.00 | 0.13 | 0.13 | 63 | 1011.6 |
| 20260510003610 | 29 | 197 | 8.0 | 9.7 | 0.00 | 0.13 | 0.13 | 62 | 1011.7 |
| 20260510003106 | 29 | 206 | 3.2 | 4.8 | 0.00 | 0.13 | 0.13 | 61 | 1011.7 |
| 20260510002600 | 29 | 154 | 4.8 | 4.8 | 0.00 | 0.13 | 0.13 | 59 | 1011.6 |
| 20260510002057 | 29 | 201 | 4.8 | 8.0 | 0.00 | 0.13 | 0.13 | 58 | 1011.3 |
| 20260510001554 | 30 | 196 | 3.2 | 4.8 | 0.00 | 0.13 | 0.13 | 58 | 1011.3 |
| 20260510001053 | 30 | 172 | 1.6 | 3.2 | 0.00 | 0.13 | 0.13 | 58 | 1011.3 |
| 20260510000548 | 30 | 119 | 6.4 | 9.7 | 0.00 | 0.13 | 0.13 | 55 | 1011.4 |
| 20260510000046 | 30 | 212 | 3.2 | 3.2 | 0.00 | 0.13 | 0.13 | 57 | 1011.3 |
| 20260509235541 | 30 | 191 | 6.4 | 9.7 | 0.00 | 0.13 | 0.13 | 55 | 1011.4 |
| 20260509235038 | 30 | 189 | 4.8 | 4.8 | 0.00 | 0.13 | 0.13 | 54 | 1011.0 |
| 20260509234534 | 30 | 193 | 6.4 | 8.0 | 0.00 | 0.13 | 0.13 | 53 | 1011.3 |
| 20260509234033 | 30 | 152 | 8.0 | 9.7 | 0.00 | 0.13 | 0.13 | 50 | 1011.2 |
| 20260509233530 | 30 | 201 | 8.0 | 11.3 | 0.00 | 0.13 | 0.13 | 50 | 1011.1 |
| 20260509233027 | 30 | 213 | 8.0 | 9.7 | 0.00 | 0.13 | 0.13 | 50 | 1011.2 |
| 20260509232524 | 30 | 124 | 4.8 | 9.7 | 0.00 | 0.13 | 0.13 | 50 | 1011.1 |
| 20260509232020 | 30 | 189 | 4.8 | 8.0 | 0.00 | 0.13 | 0.13 | 50 | 1011.0 |
| 20260509231516 | 31 | 197 | 4.8 | 4.8 | 0.00 | 0.13 | 0.13 | 50 | 1011.2 |
| 20260509231015 | 31 | 173 | 4.8 | 4.8 | 0.00 | 0.13 | 0.13 | 51 | 1010.8 |
| 20260509230511 | 31 | 186 | 4.8 | 4.8 | 0.00 | 0.13 | 0.13 | 51 | 1011.0 |
| 20260509230008 | 31 | 161 | 6.4 | 8.0 | 0.00 | 0.13 | 0.13 | 50 | 1011.2 |
| 20260509225503 | 31 | 186 | 3.2 | 3.2 | 0.00 | 0.13 | 0.13 | 50 | 1010.9 |
| 20260509224959 | 31 | 168 | 6.4 | 8.0 | 0.00 | 0.13 | 0.13 | 50 | 1011.0 |
| 20260509224455 | 31 | 181 | 4.8 | 4.8 | 0.00 | 0.13 | 0.13 | 51 | 1011.1 |
| 20260509223952 | 31 | 185 | 4.8 | 4.8 | 0.00 | 0.13 | 0.13 | 51 | 1011.1 |
| 20260509223449 | 31 | 158 | 4.8 | 4.8 | 0.00 | 0.13 | 0.13 | 50 | 1011.0 |
| 20260509222946 | 31 | 167 | 4.8 | 8.0 | 0.00 | 0.13 | 0.13 | 52 | 1011.0 |
| 20260509222441 | 31 | 183 | 9.7 | 11.3 | 0.00 | 0.13 | 0.13 | 50 | 1011.1 |
| 20260509221937 | 31 | 235 | 3.2 | 3.2 | 0.00 | 0.13 | 0.13 | 53 | 1011.2 |
| 20260509221434 | 31 | 201 | 3.2 | 3.2 | 0.00 | 0.13 | 0.13 | 52 | 1011.1 |
| 20260509220930 | 31 | 195 | 4.8 | 8.0 | 0.00 | 0.13 | 0.13 | 53 | 1011.1 |
| 20260509220426 | 31 | 195 | 4.8 | 4.8 | 0.00 | 0.13 | 0.13 | 52 | 1010.9 |
| 20260509215922 | 31 | 180 | 4.8 | 4.8 | 0.00 | 0.13 | 0.13 | 53 | 1011.1 |
| 20260509215418 | 30 | 187 | 6.4 | 8.0 | 0.00 | 0.13 | 0.13 | 55 | 1011.2 |
| 20260509214916 | 31 | 146 | 4.8 | 8.0 | 0.00 | 0.13 | 0.13 | 55 | 1011.3 |
| 20260509214413 | 31 | 153 | 6.4 | 11.3 | 0.00 | 0.13 | 0.13 | 56 | 1011.3 |
| 20260509213910 | 31 | 192 | 8.0 | 11.3 | 0.00 | 0.13 | 0.13 | 55 | 1011.2 |
| 20260509213405 | 31 | 187 | 8.0 | 12.9 | 0.00 | 0.13 | 0.13 | 55 | 1011.2 |
| 20260509212903 | 31 | 220 | 4.8 | 8.0 | 0.00 | 0.13 | 0.13 | 56 | 1011.2 |
| 20260509212400 | 32 | 186 | 4.8 | 8.0 | 0.00 | 0.13 | 0.13 | 55 | 1011.4 |
| 20260509211856 | 32 | 103 | 6.4 | 8.0 | 0.00 | 0.13 | 0.13 | 57 | 1011.5 |
| 20260509211352 | 32 | 182 | 4.8 | 8.0 | 0.00 | 0.13 | 0.13 | 53 | 1011.5 |
| 20260509210849 | 34 | 222 | 1.6 | 1.6 | 0.00 | 0.13 | 0.13 | 51 | 1011.3 |
| 20260509210346 | 35 | 203 | 0.0 | 0.0 | 0.00 | 0.13 | 0.13 | 46 | 1011.7 |
| 20260509205846 | 35 | 197 | 0.0 | 0.0 | 0.00 | 0.13 | 0.13 | 47 | 1011.4 |
| 20260509205340 | 35 | 200 | 1.6 | 1.6 | 0.00 | 0.13 | 0.13 | 45 | 1011.7 |
| 20260509204838 | 35 | 198 | 1.6 | 1.6 | 0.00 | 0.13 | 0.13 | 45 | 1011.7 |
| 20260509204334 | 34 | 199 | 0.0 | 0.0 | 0.00 | 0.13 | 0.13 | 50 | 1011.7 |
| 20260509203830 | 33 | 198 | 0.0 | 1.6 | 0.00 | 0.13 | 0.13 | 52 | 1011.8 |
| 20260509203327 | 33 | 265 | 1.6 | 1.6 | 0.00 | 0.13 | 0.13 | 48 | 1011.8 |
| 20260509202823 | 34 | 255 | 0.0 | 1.6 | 0.00 | 0.13 | 0.13 | 53 | 1012.0 |
| 20260509202320 | 34 | 314 | 0.0 | 0.0 | 0.00 | 0.13 | 0.13 | 54 | 1012.3 |
| 20260509201819 | 34 | 285 | 1.6 | 3.2 | 0.00 | 0.13 | 0.13 | 50 | 1012.2 |
| 20260509201316 | 33 | 223 | 0.0 | 1.6 | 0.00 | 0.13 | 0.13 | 55 | 1012.3 |
| 20260509200812 | 33 | 201 | 4.8 | 8.0 | 0.00 | 0.13 | 0.13 | 51 | 1012.6 |
| 20260509200308 | 33 | 222 | 0.0 | 0.0 | 0.00 | 0.13 | 0.13 | 58 | 1012.4 |
| 20260509195804 | 34 | 222 | 0.0 | 1.6 | 0.00 | 0.13 | 0.13 | 53 | 1012.6 |
| 20260509195259 | 34 | 222 | 0.0 | 0.0 | 0.00 | 0.13 | 0.13 | 56 | 1012.3 |
| 20260509194759 | 33 | 248 | 0.0 | 0.0 | 0.00 | 0.13 | 0.13 | 57 | 1012.3 |
| 20260509194255 | 33 | 248 | 0.0 | 0.0 | 0.00 | 0.13 | 0.13 | 56 | 1012.4 |
| 20260509193752 | 32 | 245 | 1.6 | 1.6 | 0.00 | 0.13 | 0.13 | 57 | 1012.4 |
| 20260509193247 | 33 | 242 | 0.0 | 0.0 | 0.00 | 0.13 | 0.13 | 56 | 1012.7 |
| 20260509192744 | 33 | 348 | 1.6 | 3.2 | 0.00 | 0.13 | 0.13 | 56 | 1012.8 |
| 20260509192244 | 32 | 264 | 0.0 | 1.6 | 0.00 | 0.13 | 0.13 | 59 | 1012.8 |
| 20260509191739 | 32 | 245 | 0.0 | 1.6 | 0.00 | 0.13 | 0.13 | 59 | 1012.7 |
| 20260509191236 | 32 | 264 | 1.6 | 3.2 | 0.00 | 0.13 | 0.13 | 59 | 1012.8 |
| 20260509190732 | 32 | 264 | 3.2 | 3.2 | 0.00 | 0.13 | 0.13 | 59 | 1013.0 |
| 20260509190229 | 31 | 262 | 1.6 | 1.6 | 0.00 | 0.13 | 0.13 | 62 | 1012.9 |
| 20260509185727 | 32 | 263 | 1.6 | 3.2 | 0.00 | 0.13 | 0.13 | 62 | 1013.0 |
| 20260509185223 | 32 | 196 | 0.0 | 0.0 | 0.00 | 0.13 | 0.13 | 61 | 1013.1 |
| 20260509184721 | 32 | 237 | 0.0 | 0.0 | 0.00 | 0.13 | 0.13 | 64 | 1013.3 |
| 20260509184218 | 32 | 237 | 1.6 | 1.6 | 0.00 | 0.13 | 0.13 | 62 | 1013.6 |
| 20260509183714 | 32 | 275 | 1.6 | 3.2 | 0.00 | 0.13 | 0.13 | 62 | 1013.4 |
| 20260509183209 | 32 | 193 | 1.6 | 3.2 | 0.00 | 0.13 | 0.13 | 63 | 1013.6 |
| 20260509182705 | 32 | 301 | 4.8 | 4.8 | 0.00 | 0.13 | 0.13 | 61 | 1013.4 |
| 20260509182203 | 32 | 226 | 0.0 | 0.0 | 0.00 | 0.13 | 0.13 | 64 | 1013.4 |
| 20260509181700 | 32 | 192 | 1.6 | 1.6 | 0.00 | 0.13 | 0.13 | 61 | 1013.7 |
| 20260509181158 | 32 | 243 | 1.6 | 1.6 | 0.00 | 0.13 | 0.13 | 63 | 1013.7 |
| 20260509180654 | 31 | 262 | 0.0 | 1.6 | 0.00 | 0.13 | 0.13 | 64 | 1013.8 |
| 20260509180150 | 31 | 336 | 3.2 | 4.8 | 0.00 | 0.13 | 0.13 | 64 | 1013.9 |
| 20260509175646 | 31 | 257 | 0.0 | 0.0 | 0.00 | 0.13 | 0.13 | 65 | 1013.8 |
| 20260509175143 | 30 | 261 | 0.0 | 1.6 | 0.00 | 0.13 | 0.13 | 69 | 1014.0 |
| 20260509174639 | 30 | 197 | 0.0 | 0.0 | 0.00 | 0.13 | 0.13 | 65 | 1014.1 |
| 20260509174134 | 31 | 195 | 4.8 | 4.8 | 0.00 | 0.13 | 0.13 | 65 | 1014.1 |
| 20260509173630 | 31 | 223 | 3.2 | 3.2 | 0.00 | 0.13 | 0.13 | 66 | 1014.5 |
| 20260509173126 | 31 | 224 | 0.0 | 1.6 | 0.00 | 0.13 | 0.13 | 67 | 1014.6 |
| 20260509172623 | 30 | 224 | 3.2 | 3.2 | 0.00 | 0.13 | 0.13 | 67 | 1014.7 |
| 20260509172119 | 30 | 248 | 1.6 | 1.6 | 0.00 | 0.13 | 0.13 | 65 | 1014.3 |
| 20260509171615 | 30 | 315 | 0.0 | 0.0 | 0.00 | 0.13 | 0.13 | 68 | 1014.4 |
| 20260509171111 | 30 | 315 | 1.6 | 3.2 | 0.00 | 0.13 | 0.13 | 69 | 1014.4 |
| 20260509170608 | 31 | 316 | 0.0 | 1.6 | 0.00 | 0.13 | 0.13 | 67 | 1014.3 |
| 20260509170104 | 30 | 311 | 0.0 | 0.0 | 0.00 | 0.13 | 0.13 | 72 | 1014.6 |
| 20260509165602 | 30 | 311 | 1.6 | 1.6 | 0.00 | 0.13 | 0.13 | 69 | 1014.5 |
| 20260509165058 | 30 | 312 | 0.0 | 0.0 | 0.00 | 0.13 | 0.13 | 74 | 1014.3 |
| 20260509164554 | 29 | 312 | 0.0 | 0.0 | 0.00 | 0.13 | 0.13 | 75 | 1014.6 |
| 20260509164050 | 29 | 315 | 3.2 | 4.8 | 0.00 | 0.13 | 0.13 | 75 | 1014.5 |
| 20260509163548 | 28 | 314 | 0.0 | 1.6 | 0.00 | 0.13 | 0.13 | 76 | 1014.7 |
| 20260509163044 | 28 | 315 | 0.0 | 0.0 | 0.00 | 0.13 | 0.13 | 80 | 1014.6 |
| 20260509162541 | 28 | 316 | 0.0 | 0.0 | 0.00 | 0.13 | 0.13 | 81 | 1014.7 |
| 20260509162036 | 28 | 237 | 0.0 | 1.6 | 0.00 | 0.13 | 0.13 | 80 | 1014.7 |
| 20260509161533 | 28 | 259 | 1.6 | 3.2 | 0.00 | 0.13 | 0.13 | 80 | 1014.5 |
| 20260509161028 | 28 | 142 | 0.0 | 1.6 | 0.00 | 0.13 | 0.13 | 82 | 1014.6 |
| 20260509160524 | 27 | 269 | 1.6 | 1.6 | 0.00 | 0.13 | 0.13 | 82 | 1014.5 |
| 20260509160020 | 27 | 199 | 1.6 | 3.2 | 0.00 | 0.13 | 0.13 | 86 | 1014.6 |
| 20260509155516 | 26 | 162 | 6.4 | 9.7 | 0.00 | 0.13 | 0.13 | 86 | 1014.6 |
| 20260509155012 | 26 | 167 | 0.0 | 0.0 | 0.00 | 0.13 | 0.13 | 89 | 1014.6 |
| 20260509154508 | 25 | 160 | 4.8 | 8.0 | 0.00 | 0.13 | 0.13 | 91 | 1014.9 |
| 20260509154006 | 25 | 221 | 4.8 | 4.8 | 0.00 | 0.13 | 0.13 | 91 | 1014.8 |
| 20260509153503 | 25 | 170 | 6.4 | 9.7 | 0.00 | 0.13 | 0.13 | 91 | 1014.9 |
| 20260509153000 | 24 | 175 | 4.8 | 8.0 | 0.00 | 0.13 | 0.13 | 92 | 1014.7 |
| 20260509152455 | 24 | 171 | 8.0 | 9.7 | 0.00 | 0.13 | 0.13 | 93 | 1014.6 |
| 20260509151953 | 24 | 216 | 4.8 | 8.0 | 0.00 | 0.13 | 0.13 | 93 | 1014.9 |
| 20260509151449 | 24 | 177 | 3.2 | 8.0 | 0.00 | 0.13 | 0.13 | 94 | 1014.6 |
| 20260509150948 | 24 | 181 | 1.6 | 3.2 | 0.00 | 0.13 | 0.13 | 94 | 1014.5 |
| 20260509150444 | 24 | 162 | 4.8 | 8.0 | 0.00 | 0.13 | 0.13 | 94 | 1014.4 |
| 20260509145942 | 24 | 239 | 1.6 | 3.2 | 0.00 | 0.13 | 0.13 | 94 | 1014.4 |
| 20260509145437 | 23 | 211 | 1.6 | 3.2 | 0.00 | 0.13 | 0.13 | 95 | 1014.5 |
| 20260509144933 | 23 | 191 | 1.6 | 1.6 | 0.00 | 0.13 | 0.13 | 96 | 1014.4 |
| 20260509144430 | 23 | 156 | 3.2 | 4.8 | 0.00 | 0.13 | 0.13 | 96 | 1014.4 |
| 20260509143927 | 23 | 226 | 1.6 | 1.6 | 0.00 | 0.13 | 0.13 | 97 | 1014.5 |
| 20260509143424 | 23 | 185 | 3.2 | 3.2 | 0.00 | 0.13 | 0.13 | 97 | 1014.5 |
| 20260509142920 | 23 | 210 | 4.8 | 8.0 | 0.00 | 0.13 | 0.13 | 96 | 1014.0 |
| 20260509142417 | 23 | 207 | 8.0 | 9.7 | 0.00 | 0.13 | 0.13 | 95 | 1014.1 |
| 20260509141912 | 24 | 212 | 8.0 | 11.3 | 0.00 | 0.13 | 0.13 | 96 | 1013.9 |
| 20260509141410 | 24 | 164 | 6.4 | 8.0 | 0.00 | 0.13 | 0.13 | 96 | 1013.6 |